CAPE
1482 1484 1317 1324 1286 1251 1444 1743 1850 1920 1961 1830 1938 2197 2209 2189 2210 2421 2595 2534 2534 2690 2894 2951 2879 2666 2973 3090 3544 3573 3005 2683 2643 2490 2433 2460 2458 2500 2571 2629 2491 2474
1795 1751 1647 1480 1434 1442 1310 1391 1602 1724 1791 1701 1779 1933 1996 2098 2217 2406 2557 2592 2602 2690 2832 2917 2875 2773 2769 3210 3626 3531 3198 2992 2777 3035 2645 2609 2592 2617 2724 2847 2763 2838
1523 1749 1715 1600 1470 1425 1452 1485 1650 1659 1677 1597 1561 1636 1771 2012 2140 2319 2435 2565 2613 2575 2476 2492 2621 2693 2902 3158 3387 3492 3199 3461 3219 2957 3115 2910 2836 2838 2841 2810 2793 2950
1148 1404 1612 1593 1374 1332 1526 1621 1812 1784 1620 1540 1653 1758 1783 1936 2101 2190 2319 2803 2490 2505 2446 2398 2516 2723 3168 3436 3453 3454 3295 3240 3342 3050 2952 3098 3131 3019 2876 2840 3045 2977
1179 1216 1508 1717 1536 1392 1563 1633 1862 1895 1791 1651 1728 1930 1976 1974 2056 2123 2198 2264 2354 2405 2465 2478 2619 2720 3080 3422 3563 3490 3381 3157 3188 3384 3379 3337 3278 3134 2926 2852 2886 2881
1339 1272 1409 1637 1699 1527 1540 1681 1804 1966 1911 1812 1728 1926 2089 2056 2063 2042 2058 2095 2137 2277 2410 2480 2634 2724 2866 3052 3184 3319 3333 3258 2965 2877 3014 3158 3231 3284 3362 3343 3197 3230
1399 1407 1394 1530 1651 1691 1579 1613 1738 1902 2028 1945 1860 1880 2009 2189 2224 2204 2114 2039 2047 2163 2290 2504 2629 2700 2792 2894 2895 3072 3230 3264 3192 2905 2914 3023 3128 3262 3407 3542 3606 3602
1475 1440 1438 1472 1566 1615 1671 1657 1606 1657 1824 2058 2119 2114 2089 2106 2178 2238 2287 2293 2261 2149 2152 2404 2602 2684 2768 2877 2912 2904 3061 3201 3238 3162 3146 3142 3178 3229 3269 3320 3311 3282
1572 1560 1496 1490 1491 1508 1542 1602 1700 1667 1604 1654 1852 2091 2160 2126 2135 2135 2069 2115 2188 2190 2155 2148 2419 2614 2736 2841 2871 2844 2876 2997 3122 3195 3213 3231 3248 3248 3228 3212 3183 3070
1585 1608 1623 1574 1505 1467 1434 1432 1458 1556 1690 1704 1703 1718 1852 1967 2088 2146 2077 1918 2015 2176 2172 2115 2127 2313 2499 2640 2698 2726 2718 2720 2820 2951 3057 3073 3011 3010 3060 3067 3015 2939
1633 1669 1680 1676 1616 1500 1419 1389 1380 1372 1390 1467 1614 1681 1686 1665 1771 1954 1995 1863 1691 1919 2012 2024 2012 2023 2117 2257 2387 2496 2550 2562 2560 2585 2660 2661 2601 2605 2941 2656 2677 2712
1740 1723 1709 1698 1661 1578 1517 1477 1465 1442 1436 1396 1357 1365 1426 1469 1524 1611 1633 1536 1436 1445 1650 1780 1828 1858 1896 1987 2076 2130 2204 2308 2342 2342 2314 2269 2197 2158 2189 2381 2432 2453
1934 1869 1869 1836 1828 1815 1679 1535 1507 1492 1472 1443 1417 1414 1405 1324 1206 1157 1206 1251 1316 1318 1237 1403 1604 1710 1748 1726 1708 1730 1759 1794 1854 1922 1974 1984 1966 1920 1856 1801 1946 2115
2102 1932 2001 2039 2073 2060 1979 1823 1644 1540 1511 1451 1413 1451 1473 1408 1175 942 918 999 1121 1203 1214 1116 1189 1308 1355 1323 1288 1295 1324 1368 1451 1530 1582 1655 1713 1744 1736 1678 1603 1622
2028 1916 1867 2008 2034 2008 1965 1854 1797 1766 1665 1617 1562 1512 1456 1346 1194 957 744 828 892 988 1067 1064 1086 1126 1144 1128 1097 1117 1130 1142 1209 1333 1423 1456 1479 1529 1559 1558 1515 1488
1889 1874 1892 1939 1840 1771 1818 1797 1620 1463 1597 1632 1648 1482 1370 1208 1106 982 876 795 702 741 802 889 998 1040 1056 1060 1018 1010 1030 1050 1066 1118 1222 1327 1361 1339 1336 1339 1345 1334
1418 1716 1888 1810 1452 1243 1403 1549 1541 1422 1276 1415 1508 1487 1208 1034 865 749 708 670 677 695 684 658 690 741 838 878 902 910 921 915 921 932 930 985 1077 1133 1111 1045 1026 1057
1130 1216 1294 1257 1155 1058 964 1073 1185 1127 1184 1048 1054 1037 1265 900 735 656 574 560 595 618 629 642 644 606 574 573 515 702 750 793 802 786 761 509 506 543 583 608 584 613
1246 1269 1248 1306 1166 1198 1206 1159 960 843 750 886 1019 939 991 1022 1275 1224 909 649 538 556 561 581 595 603 594 536 492 30 0 658 707 731 705 653 329 280 282 275 274 313
1197 1164 1064 1024 1042 1119 1187 1177 1173 1100 1077 1056 1171 1294 1286 1285 1182 1289 1329 1245 952 667 530 522 544 558 574 588 590 510 455 524 576 625 660 672 660 633 514 332 292 265
1081 965 919 895 869 903 868 838 914 1063 983 1218 1268 1367 1377 1463 1347 1326 1307 1301 1292 1166 908 635 604 504 522 533 517 542 506 606 599 586 584 584 601 630 656 659 636 378
597 727 823 874 873 808 810 878 808 806 939 1003 1024 1154 1088 1069 1205 1250 1328 1308 1284 1258 1219 1145 947 878 822 804 861 888 795 642 571 580 618 626 629 628 614 600 321 386
452 510 572 619 668 696 730 761 823 847 829 889 898 968 1020 1060 1096 1138 1293 1495 1475 1358 1269 1227 1199 1148 1141 1106 1036 944 940 972 964 845 700 488 30 420 188 480 474 276
399 419 464 512 538 561 593 638 666 694 694 656 722 790 914 940 870 1196 1514 1676 1714 1683 1620 1590 1554 1548 1562 1564 1562 1489 1252 1092 1056 1059 1066 1114 1108 906 603 78 192 953
0 150 190 242 304 352 388 439 478 520 544 511 528 649 789 908 1265 1323 1445 1556 1571 1536 1688 1549 1463 1492 1603 1682 1621 1530 1492 1485 1454 1372 1274 1216 1220 1277 1302 1302 1224 1058
0 0 0 0 0 0 8 180 217 263 309 358 619 705 522 502 536 647 776 988 1078 1126 1135 1177 1208 1213 1260 1418 1587 1611 1555 1476 1487 1482 1501 1522 1518 1494 1453 1414 1405 1380
Wind_Speed
12 12 10 11 11 10 9 9 11 10 11 11 9 10 8 8 7 6 6 6 5 5 5 5 5 5 4 4 4 4 3 3 3 3 3 4 5 6 7 8 8 6
13 13 13 13 12 12 10 8 7 7 8 8 8 8 8 8 7 6 5 5 5 5 5 4 4 4 4 4 4 5 5 4 3 4 4 4 5 6 6 6 6 6
13 14 14 13 12 12 10 9 8 7 6 6 7 8 7 8 7 7 6 5 4 4 4 4 4 3 4 5 6 6 5 5 4 5 5 4 6 6 6 7 7 7
12 13 14 13 13 12 12 11 10 9 9 7 6 6 7 7 7 7 7 6 6 6 5 5 4 4 4 4 6 6 6 5 4 6 7 7 6 6 7 8 8 9
10 12 13 13 13 13 14 12 10 10 8 7 8 8 8 8 8 7 7 7 7 7 6 6 5 5 4 4 5 5 6 4 5 7 6 5 6 6 6 8 8 9
10 11 11 12 12 12 11 11 10 10 9 10 7 8 8 8 8 7 7 7 7 7 6 6 5 4 4 5 5 5 5 5 6 7 6 5 5 6 6 6 7 8
9 11 10 11 12 12 10 10 11 11 10 9 11 9 9 9 8 7 7 7 6 6 6 5 5 4 5 6 6 6 6 6 6 7 6 4 5 4 5 5 5 6
10 11 12 13 12 12 12 11 11 11 12 12 10 8 9 7 7 8 8 7 6 6 5 5 5 4 5 7 7 6 7 8 7 7 6 5 5 4 3 4 5 4
11 11 12 13 13 14 13 14 14 13 13 13 11 9 9 7 6 6 6 6 6 5 5 4 4 4 5 7 7 7 7 8 8 8 7 6 5 4 4 4 4 4
13 14 14 14 14 15 15 15 16 15 15 13 12 11 9 7 6 6 7 7 5 5 4 4 4 5 5 6 6 7 7 7 8 8 8 7 6 4 4 5 4 3
19 18 15 13 12 14 15 16 17 17 17 14 13 12 11 9 7 8 7 7 6 5 5 5 5 6 6 6 7 8 7 7 8 8 8 8 7 6 5 5 5 4
19 17 13 11 12 13 14 16 17 18 18 17 15 12 11 10 9 9 8 7 7 6 6 5 6 7 7 6 7 8 8 8 8 9 8 8 7 7 7 7 5 4
21 18 17 18 19 19 18 18 17 18 18 17 17 14 12 11 10 10 9 9 7 7 6 6 7 8 8 7 8 8 8 8 7 8 9 9 9 8 8 8 7 6
24 22 23 24 26 27 25 22 19 19 20 19 19 16 14 12 12 11 10 10 8 8 7 7 8 8 8 8 8 8 8 7 7 8 8 9 9 9 10 10 9 9
26 26 27 27 28 26 25 25 25 24 23 22 20 17 16 14 13 12 12 11 11 10 9 9 9 9 10 10 9 8 8 7 7 6 7 7 8 9 10 10 11 11
26 29 29 30 29 27 27 28 28 30 31 28 23 19 17 16 15 14 14 13 13 13 13 12 11 12 10 6 8 9 8 7 7 6 6 6 6 8 9 10 9 10
23 29 31 31 31 31 32 31 29 30 33 32 27 23 21 19 18 16 14 14 14 13 13 13 13 13 8 8 8 6 9 9 8 6 6 6 6 7 6 8 10 10
24 27 30 31 32 32 31 32 33 35 34 29 27 25 21 22 21 20 18 17 16 14 14 14 15 12 10 10 10 9 9 10 10 9 7 6 6 6 6 7 8 10
23 27 31 33 34 37 37 34 35 36 34 28 21 21 23 24 24 25 23 22 20 18 16 15 16 13 12 12 12 nan nan 11 13 12 11 9 8 7 7 7 9 10
21 23 27 30 33 36 37 36 37 36 30 25 24 24 24 25 26 26 26 24 23 22 21 21 21 19 16 14 13 12 12 15 15 14 14 14 13 12 11 10 10 11
21 23 24 25 29 33 34 34 32 29 26 25 26 26 26 26 26 27 27 26 25 24 24 24 25 26 24 20 15 14 13 17 18 17 16 16 16 16 15 14 13 13
25 25 24 23 23 26 28 29 27 27 26 26 27 28 28 27 25 25 25 25 25 25 25 26 27 29 27 24 20 18 18 22 21 20 19 18 17 18 19 18 17 16
26 26 25 23 22 22 23 24 24 25 26 27 25 25 25 24 23 24 26 27 27 27 27 26 27 26 25 23 23 24 28 26 25 23 21 20 nan 20 22 22 22 20
29 28 27 26 25 25 22 21 21 21 22 23 21 21 22 23 23 25 27 28 28 29 28 28 28 27 24 23 24 25 27 27 26 25 24 23 22 24 24 nan 23 19
nan 31 30 29 28 26 24 22 21 21 20 18 18 18 21 24 26 27 28 29 30 31 32 34 33 35 36 32 30 31 31 30 29 28 27 27 26 25 26 25 24 23
nan nan nan nan nan nan nan 25 24 24 23 21 20 20 22 24 26 29 31 33 33 35 38 38 38 39 41 42 38 35 34 32 32 31 29 30 30 29 28 28 28 27
Wind_Direction
186 185 179 173 168 168 168 164 163 162 157 161 157 154 156 152 163 168 166 165 160 164 166 172 178 178 181 186 192 209 202 175 170 181 184 192 174 183 178 176 179 184
188 189 185 181 177 176 174 175 179 174 165 165 160 167 168 176 167 182 182 174 174 165 171 180 189 193 205 217 225 229 220 228 204 220 216 206 196 210 195 198 190 193
196 194 193 189 183 181 180 183 191 191 187 177 181 186 185 184 180 182 187 187 182 173 174 178 193 201 220 230 240 240 238 237 229 224 241 225 215 215 208 217 213 205
197 198 197 195 193 192 192 193 194 199 204 206 197 201 204 198 197 191 189 188 191 185 185 191 191 208 223 232 244 249 248 248 239 247 243 231 228 231 215 226 224 215
206 204 202 200 198 201 205 202 199 204 210 214 217 216 217 211 211 202 197 190 193 188 194 192 196 202 218 230 239 244 247 253 246 252 250 236 232 240 226 232 221 212
212 216 212 209 207 211 213 210 207 210 208 213 217 223 219 221 220 213 206 198 192 188 190 197 207 208 226 234 241 243 246 246 245 257 259 255 235 245 243 242 239 223
223 225 224 220 216 215 217 216 215 216 216 215 222 218 220 221 220 213 207 205 200 196 195 202 214 222 234 244 250 250 249 251 250 261 268 267 268 244 252 253 249 242
218 222 227 229 226 222 220 219 221 223 224 224 226 221 228 224 225 217 210 207 207 206 209 212 221 232 245 256 263 259 257 261 264 267 271 276 284 284 277 274 269 254
220 220 227 233 235 231 227 226 225 226 230 235 233 229 232 235 236 236 227 220 218 225 235 237 246 249 254 264 268 271 273 268 270 273 276 277 288 305 308 297 286 276
216 217 220 223 229 231 234 232 230 228 230 234 237 237 240 239 242 250 245 242 241 245 264 278 282 271 262 263 268 269 267 267 267 269 268 269 275 284 292 298 312 296
223 219 216 219 223 231 234 236 236 234 231 230 234 236 239 243 244 246 245 246 252 260 273 282 286 282 274 263 254 252 254 252 254 258 260 261 264 269 281 289 296 309
238 234 227 222 227 232 235 237 239 238 236 230 229 229 233 242 250 253 256 253 246 250 263 276 276 277 277 271 264 256 250 244 241 245 249 249 249 252 258 267 276 292
232 232 230 229 228 226 227 233 235 237 238 234 230 223 223 226 231 239 246 250 252 253 257 264 269 269 269 266 260 257 259 254 246 242 241 240 238 241 245 251 256 262
229 224 223 223 225 225 223 223 227 233 232 232 231 227 224 224 226 230 232 238 242 249 252 256 259 257 258 260 258 259 258 256 255 249 244 240 237 237 239 243 246 248
232 227 223 222 226 225 220 219 223 227 231 230 227 226 224 226 229 233 234 235 234 237 237 243 250 252 253 258 260 258 257 257 260 258 255 249 245 242 242 242 242 244
231 229 227 229 228 225 224 221 218 224 224 225 227 223 222 224 228 233 238 241 240 238 236 239 240 240 246 273 273 262 261 258 258 262 268 268 266 258 252 253 252 252
235 231 232 232 228 224 224 224 220 222 225 216 211 219 223 226 229 234 237 242 248 250 252 252 249 246 261 268 276 288 262 254 256 258 267 276 278 280 275 269 262 262
235 239 238 235 233 227 227 228 222 222 223 219 199 199 215 225 236 238 236 237 241 247 253 257 259 266 278 275 276 282 277 261 254 249 251 260 265 275 275 269 266 263
233 238 238 237 238 235 233 233 227 223 218 210 205 201 208 223 228 232 233 233 236 238 241 249 253 265 276 278 275 nan nan 273 254 254 249 244 245 247 250 253 255 256
239 240 242 239 239 240 237 231 227 225 220 216 218 224 222 224 233 234 233 234 235 237 237 237 239 241 257 267 271 274 274 271 258 261 259 253 248 244 241 240 244 248
241 239 241 240 239 238 234 232 232 234 229 221 226 234 233 227 224 232 234 235 235 237 238 239 242 243 244 249 253 256 257 261 250 252 254 256 258 257 254 250 247 248
232 234 238 241 239 237 235 235 235 234 231 232 233 231 229 228 228 234 237 235 236 238 240 240 241 235 237 243 249 253 255 254 252 249 248 249 252 257 259 259 258 258
233 233 235 238 239 240 241 238 237 239 240 239 233 233 231 233 232 237 241 243 241 242 243 244 245 244 241 242 246 247 253 256 255 255 253 251 nan 251 254 256 258 260
235 235 234 235 237 238 239 241 244 246 246 246 241 237 238 240 239 238 241 244 244 242 244 245 247 250 252 251 253 256 260 256 257 257 255 254 250 251 254 nan 259 264
nan 237 236 236 237 237 239 241 245 249 251 252 250 246 240 240 241 242 242 242 242 242 238 241 244 243 242 242 243 245 252 253 253 255 252 252 252 252 255 258 258 259
nan nan nan nan nan nan nan 241 244 247 250 255 255 251 244 242 243 245 246 245 244 243 244 241 242 243 243 242 244 247 256 257 258 254 251 248 250 251 250 252 254 254